Regional Weather Roundup
Issued by NWS Albany, NY

Home | Current Version | Previous Version | Text Only | Print | Product List | Glossary On
Versions: 1 2 3 4 5 6 7 8 9 10 11 12 13 14 15 16 17 18 19 20 21 22 23 24 25 26 27 28 29 30 31 32 33 34 35 36 37 38 39 40 41 42 43 44 45 46 47 48 49 50
000
ASUS41 KALY 010710
RWRALY

NEW YORK STATE HOURLY WEATHER ROUNDUP
NATIONAL WEATHER SERVICE ALBANY NY
200 AM EST SUN FEB 01 2015

NOTE: "FAIR" INDICATES FEW OR NO CLOUDS BELOW 12,000 FEET WITH NO
SIGNIFICANT WEATHER AND/OR NO OBSTRUCTIONS TO VISIBILITY.

NYZ032-033-038>043-046>054-057>066-NYZ062>081-010800-
EAST


CITY           SKY/WX    TMP DP  RH WIND       PRES   REMARKS
ALBANY         FLURRIES  15   6  67 NW6       30.14S WCI   6
GLENS FALLS    CLOUDY    -2  -8  76 CALM      30.12F
POUGHKEEPSIE   MOCLDY     4  -4  69 CALM      30.16S
NEWBURGH       MOCLDY    14   7  73 W14       30.16S WCI  -1
MONTGOMERY     CLOUDY    17   6  62 SW12      30.15R WCI   4
WHITE PLAINS   CLEAR     17   6  62 W9        30.14R WCI   6
ISLIP          CLEAR     13   3  64 SW5       30.17R WCI   5
NEW YORK CITY  MOCLDY    22   7  52 W12       30.20S WCI  10
CENTRAL PARK   PTCLDY    21   6  52 W3        30.21S
$$

NYZ005>009-017-018-044>046-055-056-010800-
CENTRAL


CITY           SKY/WX    TMP DP  RH WIND       PRES   REMARKS
FULTON         LGT SNOW  21  15  78 SW9       30.11F WCI  11
SYRACUSE       FLURRIES  17  14  88 CALM      30.11F
ROME           FLURRIES  12   7  80 CALM      30.15S
ELMIRA         CLOUDY    15   9  76 CALM      30.14S
BINGHAMTON     CLOUDY    14   7  73 SW8       30.07S WCI   3
MONTICELLO     CLOUDY    14   9  79 W7        30.08S WCI   4
$$

NYZ026>034-041>043-010800-
NORTH


CITY           SKY/WX    TMP DP  RH WIND       PRES   REMARKS
WATERTOWN      FLURRIES  21  15  78 SW6       30.11S WCI  13
FORT DRUM      NOT AVBL
MASSENA        LGT SNOW   8   4  83 W6        30.15R FOG     WCI  -2
SARANAC LAKE   LGT SNOW   6   2  83 W3        29.96S FOG
PLATTSBURGH    CLOUDY    12   6  77 CALM      30.10S
$$

NYZ001>004-010>016-019>021-010800-
WEST


CITY           SKY/WX    TMP DP  RH WIND       PRES   REMARKS
NIAGARA FALLS  CLOUDY    27  22  81 W10       30.15S WCI  17
BUFFALO        FLURRIES  27  21  78 W12       30.15S WCI  17
DUNKIRK        CLOUDY    30  20  66 W9        30.16S WCI  22
JAMESTOWN      CLOUDY    21  18  86 SW7       30.10S WCI  13
WELLSVILLE     CLOUDY    21  15  78 W7        30.08S WCI  12
ROCHESTER      CLOUDY    28  21  75 W12       30.14R WCI  18
PENN YAN       FLURRIES  27  18  69 W12       30.11S WCI  17
$$

             KEY
       WCI = WIND CHILL INDEX
       VSB = VISIBILITY
       HX  = HEAT INDEX
$$


USA.gov is the U.S. government's official web portal to all federal, state and local government web resources and services.